This is the latest recevied weather packets stored in our database for station/object KQ7A. If no packets are shown the sender has not sent any weather packets the latest 10 day(s).
| Time | Temp. | Humidity | Pressure | Rain* | Wind** | Luminosity | Snow |
|---|---|---|---|---|---|---|---|
| 1788648390 | 22.78° C | 29% | 1016 hPa | 0 mm | - | 534 W/m² | - |
| 1788648085 | 22.78° C | 29% | 1015.9 hPa | 0 mm | - | 553 W/m² | - |
| 1788647782 | 22.78° C | 29% | 1016.3 hPa | 0 mm | - | 554 W/m² | - |
| 1788647479 | 22.78° C | 29% | 1016 hPa | 0 mm | - | 572 W/m² | - |
| 1788647178 | 23.33° C | 29% | 1016.1 hPa | 0 mm | - | 580 W/m² | - |
| 1788646868 | 23.33° C | 28% | 1016.1 hPa | 0 mm | - | 579 W/m² | - |
| 1788646564 | 22.78° C | 29% | 1016.2 hPa | 0 mm | - | 585 W/m² | - |
| 1788646260 | 23.33° C | 26% | 1016.1 hPa | 0 mm | - | 589 W/m² | - |
| 1788645955 | 23.33° C | 27% | 1016 hPa | 0 mm | - | 595 W/m² | - |
| 1788645652 | 23.33° C | 29% | 1015.9 hPa | 0 mm | - | 596 W/m² | - |
| 1788645351 | 23.33° C | 28% | 1016.6 hPa | 0 mm | - | 593 W/m² | - |
| 1788645047 | 22.78° C | 26% | 1016.3 hPa | 0 mm | - | 608 W/m² | - |
| 1788644742 | 23.33° C | 27% | 1016.2 hPa | 0 mm | - | 628 W/m² | - |
| 1788644437 | 23.89° C | 27% | 1015.9 hPa | 0 mm | - | 629 W/m² | - |
| 1788644133 | 22.78° C | 27% | 1016.4 hPa | 0 mm | - | 637 W/m² | - |
| 1788643828 | 22.78° C | 28% | 1016.3 hPa | 0 mm | - | 636 W/m² | - |
| 1788643523 | 22.78° C | 31% | 1016.3 hPa | 0 mm | - | 636 W/m² | - |
| 1788643222 | 22.78° C | 27% | 1016.4 hPa | 0 mm | - | 636 W/m² | - |
| 1788642952 | 23.33° C | 27% | 1016.1 hPa | 0 mm | - | 647 W/m² | - |
| 1788642614 | 22.78° C | 27% | 1016.3 hPa | 0 mm | - | 638 W/m² | - |
| 1788642309 | 22.78° C | 29% | 1016.4 hPa | 0 mm | - | 641 W/m² | - |
| 1788642008 | 22.78° C | 29% | 1016.2 hPa | 0 mm | - | 652 W/m² | - |
| 1788641702 | 22.22° C | 29% | 1016.6 hPa | 0 mm | - | 659 W/m² | - |
| 1788641401 | 22.78° C | 28% | 1016.6 hPa | 0 mm | - | 661 W/m² | - |
| 1788641097 | 22.22° C | 30% | 1016.6 hPa | 0 mm | - | 658 W/m² | - |
* Rain latest hour (hover to see other rain measurements)
** Current wind speed in m/s (hover to see current wind gust speed)